TINTIN B (43217 NORAD) Tracking and Keplerian Element Data

This shows tracking and keplerian element data for the satellite.

Feedback or suggestion? Click here.




ElementValue
Catalog43217
NameTINTIN B
Epoch Orbit9022
Epoch Day282.63091341
Epoch Year2019
RAAN289.8033
Inclination97.4594
Eccentricity0.0012139
Argument of Perigee8.2535
Mean Anonmoly351.8898
Mean Motion15.20509086
Decay Rate9.38E-06
L11 43217U 18020C 19282.63091341 .00000938 00000-0 46054-4 0 9990
L22 43217 97.4594 289.8033 0012139 8.2535 351.8898 15.20509086 90220

Live tracking and technical data element details for TINTIN B (NORAD 43217). TINTIN B can be tracked NOW for your location showing map with azimuth and elevation plus other details from your city location.

Track the satellite on the map from your city or location and see movement details for azimuth, elevation, latitude, longitude, range, height, and movement on the map or in text.







IsCatalogInMostPopularTable: catalog: 43217, numindb: 410
Update: records affected: 1



GetName: 43217 TINTIN B

Hit Count: updated at: Mon, 14 Oct 2019 00:52:02 GMT